Sierra Vista, AZ

6:40 PM MST on July 25, 2017 (GMT -0700)
Sierra Vista Municipal-Libby Army Air Field

Weather History for KFHU - September, 2013

Change the Weather History Date:

Friday, September 27, 2013

  Actual Average Record
Temperature  
Mean Temperature 64 °F -  
Max Temperature 71 °F 83 °F 93 °F (2005)
Min Temperature 57 °F 63 °F 47 °F (1986)
Degree Days  
Heating Degree Days 1    
Growing Degree Days 14 (Base 50)    
Moisture  
Dew Point 44 °F    
Average Humidity 48    
Maximum Humidity 82    
Minimum Humidity 31    
Precipitation  
Precipitation 0.00 in - - ()
Sea Level Pressure  
Sea Level Pressure 29.84 in    
Wind  
Wind Speed 10 mph (WSW)    
Max Wind Speed 20 mph    
Max Gust Speed 24 mph    
Visibility 10 miles    
Events      
Averages and records for this station are not official NWS values.
T = Trace of Precipitation, MM = Missing Value Source: NWS Daily Summary

Daily Weather History Graph

Daily Weather History Graph

Search for Another Location

Airport or City:

Trip Planner

Search our weather history database for the weather conditions in past years. The results will help you decide how hot, cold, wet, or windy it might be!

Date:

Astronomy

Sep. 27, 2013 Rise Set
Actual Time 6:12 AM MST 6:11 PM MST
Civil Twilight 5:48 AM MST 6:35 PM MST
Nautical Twilight 5:20 AM MST 7:03 PM MST
Astronomical Twilight 4:51 AM MST 7:31 PM MST
Moon No Moon Rise 1:32 PM MST (9/27)
Length of Visible Light 12h 46m
Length of Day
11h 58m
Last Quarter, 44% of the Moon is Illuminated
Sep 27
Last Quarter
Oct 4
New
Oct 11
First Quarter
Oct 18
Full
Oct 26
Last Quarter

Hourly Weather History & Observations

Time (MST) Temp. Dew Point Humidity Pressure Visibility Wind Dir Wind Speed Gust Speed Precip Events Conditions
12:55 AM 69.8 °F 53.6 °F 56% 29.73 in 10.0 mi SSW 8.1 mph 19.6 mph N/A   Mostly Cloudy
1:55 AM 68.0 °F 51.8 °F 56% 29.72 in 10.0 mi Calm Calm - N/A   Scattered Clouds
2:55 AM 68.0 °F 48.2 °F 49% 29.71 in 10.0 mi Variable 5.8 mph 17.3 mph N/A   Scattered Clouds
3:55 AM 64.4 °F 48.2 °F 56% 29.73 in 10.0 mi West 8.1 mph - N/A   Mostly Cloudy
4:55 AM 59.0 °F 51.8 °F 77% 29.75 in 10.0 mi West 11.5 mph - N/A   Mostly Cloudy
5:55 AM 57.2 °F 51.8 °F 82% 29.79 in 10.0 mi West 12.7 mph - N/A   Mostly Cloudy
6:55 AM 59.0 °F 51.8 °F 77% 29.82 in 10.0 mi West 9.2 mph - N/A   Mostly Cloudy
7:55 AM 66.2 °F 44.6 °F 46% 29.81 in 10.0 mi South 19.6 mph - N/A   Mostly Cloudy
8:55 AM 68.0 °F 42.8 °F 40% 29.82 in 10.0 mi SSW 13.8 mph 24.2 mph N/A   Mostly Cloudy
9:55 AM 68.0 °F 46.4 °F 46% 29.83 in 10.0 mi WSW 18.4 mph 23.0 mph N/A   Mostly Cloudy
10:55 AM 69.8 °F 42.8 °F 38% 29.83 in 10.0 mi South 12.7 mph 17.3 mph N/A   Mostly Cloudy
11:55 AM 71.6 °F 42.8 °F 35% 29.84 in 10.0 mi WSW 11.5 mph 17.3 mph N/A   Mostly Cloudy
12:55 PM 69.8 °F 42.8 °F 38% 29.83 in 10.0 mi West 15.0 mph 18.4 mph N/A   Mostly Cloudy
1:55 PM 71.6 °F 39.2 °F 31% 29.98 in 10.0 mi WNW 19.6 mph 23.0 mph N/A   Mostly Cloudy
2:55 PM 71.6 °F 41.0 °F 33% 29.81 in 10.0 mi West 12.7 mph - N/A   Mostly Cloudy
3:55 PM 71.6 °F 42.8 °F 35% 29.83 in 10.0 mi WNW 10.4 mph - N/A   Mostly Cloudy
4:55 PM 69.8 °F 44.6 °F 40% 29.85 in 10.0 mi WNW 11.5 mph 16.1 mph N/A   Mostly Cloudy
5:55 PM 68.0 °F 44.6 °F 43% 29.88 in 10.0 mi NW 8.1 mph - N/A   Scattered Clouds
6:55 PM 64.4 °F 44.6 °F 49% 29.90 in 10.0 mi WNW 6.9 mph - N/A   Scattered Clouds
7:55 PM 62.6 °F 44.6 °F 52% 29.90 in 10.0 mi West 9.2 mph - N/A   Scattered Clouds
8:55 PM 62.6 °F 41.0 °F 45% 29.93 in 10.0 mi West 10.4 mph - N/A   Scattered Clouds
9:55 PM 60.8 °F 35.6 °F 39% 29.95 in 10.0 mi WSW 6.9 mph - N/A   Partly Cloudy
10:55 PM 59.0 °F 32.0 °F 36% 29.96 in 10.0 mi SW 6.9 mph - N/A   Partly Cloudy
11:56 PM 57.9 °F 34.0 °F 41% 29.96 in 10.0 mi SSW 3.5 mph - N/A   Clear